GW3580 Weather Reports


Display with metric or nautical units.
time (UTC)temp
F
wind
direction
speed
MPH
gust
MPH
rain 1hr
in
rain 24hr
in
rain mn
in
humidity
%
barometer
mb
20260903182405 75 43 1.0 1.0 0.00 0.00 0.00 42 1013.9
20260903181900 75 249 2.0 2.0 0.00 0.00 0.00 42 1013.8
20260903181355 75 290 4.0 5.0 0.00 0.00 0.00 42 1013.9
20260903180855 75 243 3.0 4.0 0.00 0.00 0.00 44 1013.7
20260903180349 74 311 3.0 4.0 0.00 0.00 0.00 44 1013.8
20260903175849 73 243 2.0 2.0 0.00 0.00 0.00 45 1013.7
20260903175343 73 264 2.0 2.0 0.00 0.00 0.00 46 1013.9
20260903174837 73 275 2.0 2.0 0.00 0.00 0.00 46 1013.7
20260903174332 73 231 1.0 1.0 0.00 0.00 0.00 47 1013.7
20260903173827 72 243 2.0 4.0 0.00 0.00 0.00 47 1013.8
20260903173322 73 274 2.0 2.0 0.00 0.00 0.00 45 1013.9
20260903172818 72 238 1.0 2.0 0.00 0.00 0.00 47 1013.8
20260903172313 72 249 4.0 5.0 0.00 0.00 0.00 47 1014.0
20260903171808 71 276 2.0 2.0 0.00 0.00 0.00 49 1013.8
20260903171304 71 297 5.0 5.0 0.00 0.00 0.00 49 1014.0
20260903170803 71 262 3.0 4.0 0.00 0.00 0.00 49 1014.0
20260903170258 70 30 0.0 1.0 0.00 0.00 0.00 50 1014.0
20260903165756 70 248 4.0 5.0 0.00 0.00 0.00 52 1014.0
20260903165251 69 38 0.0 1.0 0.00 0.00 0.00 52 1014.0
20260903164745 69 251 3.0 4.0 0.00 0.00 0.00 53 1014.3
20260903164241 69 219 1.0 1.0 0.00 0.00 0.00 55 1014.2
20260903163740 68 212 1.0 1.0 0.00 0.00 0.00 55 1014.3
20260903163237 68 281 3.0 4.0 0.00 0.00 0.00 56 1014.2
20260903162733 67 239 3.0 5.0 0.00 0.00 0.00 56 1014.3
20260903162229 67 161 1.0 1.0 0.00 0.00 0.00 56 1014.4
20260903161724 66 293 1.0 2.0 0.00 0.00 0.00 59 1014.2
20260903161220 66 264 2.0 2.0 0.00 0.00 0.00 59 1014.3
20260903160715 66 241 5.0 6.0 0.00 0.00 0.00 58 1014.4
20260903160214 66 14 0.0 1.0 0.00 0.00 0.00 61 1014.3
20260903155713 65 275 3.0 4.0 0.00 0.00 0.00 61 1014.1
20260903155208 65 192 2.0 2.0 0.00 0.00 0.00 62 1014.3
20260903154704 64 275 2.0 2.0 0.00 0.00 0.00 63 1014.1
20260903154200 64 231 1.0 1.0 0.00 0.00 0.00 63 1014.4
20260903153655 63 276 2.0 2.0 0.00 0.00 0.00 65 1014.2
20260903153151 63 252 3.0 4.0 0.00 0.00 0.00 66 1014.3
20260903152647 63 251 2.0 2.0 0.00 0.00 0.00 66 1014.3
20260903152143 62 269 2.0 2.0 0.00 0.00 0.00 67 1014.4
20260903151643 62 269 1.0 1.0 0.00 0.00 0.00 69 1014.2
20260903151142 61 349 1.0 1.0 0.00 0.00 0.00 69 1014.5
20260903150637 61 105 0.0 0.0 0.00 0.00 0.00 71 1014.5
20260903150133 61 248 5.0 6.0 0.00 0.00 0.00 71 1014.5
20260903145632 60 265 2.0 2.0 0.00 0.00 0.00 73 1014.1
20260903145127 60 187 0.0 0.0 0.00 0.00 0.00 73 1014.3
20260903144625 59 260 2.0 2.0 0.00 0.00 0.00 74 1014.2
20260903144122 59 244 4.0 6.0 0.00 0.00 0.00 74 1014.2
20260903143618 59 280 1.0 1.0 0.00 0.00 0.00 74 1014.2
20260903143114 59 309 0.0 1.0 0.00 0.00 0.00 75 1014.0
20260903142609 59 262 3.0 6.0 0.00 0.00 0.00 76 1014.3
20260903142106 58 305 2.0 2.0 0.00 0.00 0.00 76 1014.1
20260903141601 58 241 3.0 4.0 0.00 0.00 0.00 76 1013.8
20260903141056 58 290 2.0 2.0 0.00 0.00 0.00 76 1013.9
20260903140552 58 269 2.0 2.0 0.00 0.00 0.00 76 1013.9
20260903140047 58 288 2.0 2.0 0.00 0.00 0.00 75 1014.0
20260903135542 58 269 2.0 4.0 0.00 0.00 0.00 75 1013.7
20260903135037 58 288 1.0 1.0 0.00 0.00 0.00 75 1014.0
20260903134536 58 296 3.0 4.0 0.00 0.00 0.00 75 1013.7
20260903134033 58 330 0.0 1.0 0.00 0.00 0.00 75 1013.7
20260903133530 58 287 0.0 1.0 0.00 0.00 0.00 75 1013.6
20260903133025 58 269 1.0 1.0 0.00 0.00 0.00 75 1013.6
20260903132520 58 304 1.0 2.0 0.00 0.00 0.00 74 1013.7
20260903132015 58 244 4.0 5.0 0.00 0.00 0.00 74 1013.6
20260903131510 59 274 2.0 2.0 0.00 0.00 0.00 74 1013.7
20260903131009 59 273 1.0 1.0 0.00 0.00 0.00 74 1013.7
20260903130504 59 233 2.0 2.0 0.00 0.00 0.00 73 1013.4
20260903130003 59 258 2.0 2.0 0.00 0.00 0.00 73 1013.4
20260903125502 59 287 1.0 2.0 0.00 0.00 0.00 72 1013.5
20260903124957 59 252 2.0 2.0 0.00 0.00 0.00 72 1013.5
20260903124451 59 249 3.0 5.0 0.00 0.00 0.00 70 1013.5
20260903123945 60 279 3.0 4.0 0.00 0.00 0.00 69 1013.5
20260903123440 60 246 3.0 4.0 0.00 0.00 0.00 69 1013.5
20260903122939 60 261 2.0 4.0 0.00 0.00 0.00 69 1013.6
20260903122439 60 313 3.0 4.0 0.00 0.00 0.00 68 1013.7
20260903121938 60 269 2.0 4.0 0.00 0.00 0.00 68 1013.5
20260903121433 61 268 1.0 1.0 0.00 0.00 0.00 68 1013.5
20260903120929 61 246 2.0 2.0 0.00 0.00 0.00 67 1013.5
20260903120427 61 248 1.0 1.0 0.00 0.00 0.00 67 1013.5
20260903115926 61 228 2.0 2.0 0.00 0.00 0.00 67 1013.6
20260903115420 61 255 1.0 1.0 0.00 0.00 0.00 67 1013.6
20260903114915 61 254 2.0 2.0 0.00 0.00 0.00 66 1013.5
20260903114411 61 232 1.0 2.0 0.00 0.00 0.00 66 1013.7
20260903113906 61 230 1.0 2.0 0.00 0.00 0.00 66 1013.6
20260903113402 62 243 2.0 2.0 0.00 0.00 0.00 65 1013.6
20260903112857 62 262 3.0 4.0 0.00 0.00 0.00 65 1013.7
20260903112353 62 117 2.0 4.0 0.00 0.00 0.00 66 1013.6
20260903111852 62 267 2.0 2.0 0.00 0.00 0.00 66 1013.8
20260903111351 62 248 3.0 4.0 0.00 0.00 0.00 66 1013.7
20260903110848 62 221 6.0 8.0 0.00 0.00 0.00 66 1013.8
20260903110343 62 264 4.0 5.0 0.00 0.00 0.00 67 1013.7
20260903105838 62 247 3.0 4.0 0.00 0.00 0.00 67 1013.7
20260903105333 62 9 3.0 4.0 0.00 0.00 0.00 68 1013.5
20260903104833 62 275 3.0 4.0 0.00 0.00 0.00 68 1013.8
20260903104327 62 244 3.0 4.0 0.00 0.00 0.00 69 1013.9
20260903103824 62 263 2.0 2.0 0.00 0.00 0.00 69 1013.7
20260903103320 62 253 2.0 2.0 0.00 0.00 0.00 69 1013.7
20260903102815 62 276 5.0 6.0 0.00 0.00 0.00 69 1013.8
20260903102310 62 257 2.0 2.0 0.00 0.00 0.00 69 1013.8
20260903101809 62 260 2.0 4.0 0.00 0.00 0.00 69 1013.7
20260903101304 62 263 1.0 2.0 0.00 0.00 0.00 68 1013.6
20260903100800 63 243 3.0 4.0 0.00 0.00 0.00 68 1013.9
20260903100254 63 195 2.0 2.0 0.00 0.00 0.00 67 1013.8
20260903095751 63 262 3.0 5.0 0.00 0.00 0.00 67 1013.8
20260903095246 63 238 2.0 2.0 0.00 0.00 0.00 67 1013.6
20260903094741 63 258 2.0 2.0 0.00 0.00 0.00 66 1013.6
20260903094236 64 253 4.0 5.0 0.00 0.00 0.00 65 1013.6
20260903093731 64 275 2.0 2.0 0.00 0.00 0.00 66 1013.9
20260903093227 64 119 1.0 1.0 0.00 0.00 0.00 65 1013.8
20260903092726 64 247 1.0 4.0 0.00 0.00 0.00 65 1013.7
20260903092221 64 276 3.0 4.0 0.00 0.00 0.00 65 1013.9
20260903091720 64 275 3.0 4.0 0.00 0.00 0.00 65 1013.8
20260903091215 64 41 2.0 2.0 0.00 0.00 0.00 64 1013.7
20260903090710 64 240 2.0 4.0 0.00 0.00 0.00 64 1013.7
20260903090209 64 266 3.0 4.0 0.00 0.00 0.00 64 1013.9
20260903085708 64 249 2.0 2.0 0.00 0.00 0.00 64 1014.2
20260903085203 64 276 2.0 2.0 0.00 0.00 0.00 63 1013.9
20260903084701 65 285 2.0 2.0 0.00 0.00 0.00 63 1014.0
20260903084155 65 274 1.0 2.0 0.00 0.00 0.00 63 1014.0
20260903083651 65 236 2.0 2.0 0.00 0.00 0.00 63 1014.0
20260903083145 65 237 1.0 2.0 0.00 0.00 0.00 63 1013.9
20260903082639 65 260 2.0 4.0 0.00 0.00 0.00 63 1014.1
20260903082136 65 282 1.0 2.0 0.00 0.00 0.00 63 1013.8
20260903081630 65 262 2.0 2.0 0.00 0.00 0.00 64 1014.1
20260903081126 65 235 3.0 5.0 0.00 0.00 0.00 64 1014.0
20260903080622 65 327 2.0 4.0 0.00 0.00 0.00 64 1013.9
20260903080120 65 240 3.0 4.0 0.00 0.00 0.00 64 1014.0
20260903075619 65 252 2.0 2.0 0.00 0.00 0.00 64 1013.8
20260903075114 65 276 2.0 2.0 0.00 0.00 0.00 64 1014.1
20260903074613 65 247 2.0 2.0 0.00 0.00 0.00 64 1013.9
20260903074108 65 262 1.0 1.0 0.00 0.00 0.00 64 1014.1
20260903073603 65 279 2.0 2.0 0.00 0.00 0.00 64 1014.0
20260903073059 65 258 1.0 1.0 0.00 0.00 0.00 64 1013.9
20260903072555 66 250 1.0 1.0 0.00 0.00 0.00 64 1014.0
20260903072051 66 262 2.0 2.0 0.00 0.00 0.00 63 1014.0
20260903071547 66 321 1.0 1.0 0.00 0.00 0.00 63 1013.8
20260903071047 66 13 0.0 0.0 0.00 0.00 0.00 62 1014.0
20260903070542 66 319 0.0 1.0 0.00 0.00 0.00 62 1013.8
20260903070038 66 247 3.0 4.0 0.00 0.00 0.00 63 1013.7
20260903065537 66 245 1.0 1.0 0.00 0.00 0.00 63 1013.8
20260903065036 66 280 1.0 1.0 0.00 0.00 0.00 61 1013.8
20260903064531 66 235 1.0 1.0 0.00 0.00 0.00 62 1013.8
20260903064027 66 354 0.0 0.0 0.00 0.00 0.00 61 1013.7
20260903063522 66 14 0.0 1.0 0.00 0.00 0.00 61 1013.8
20260903063017 66 42 0.0 0.0 0.00 0.00 0.00 61 1013.8
20260903062512 66 106 0.0 0.0 0.00 0.00 0.00 60 1014.0
20260903062008 67 56 0.0 0.0 0.00 0.00 0.00 60 1013.7
20260903061502 67 240 1.0 1.0 0.00 0.00 0.00 59 1013.7
20260903060957 67 290 2.0 2.0 0.00 0.00 0.00 59 1013.7
20260903060452 67 57 0.0 0.0 0.00 0.00 0.00 59 1013.9
20260903055950 68 32 0.0 0.0 0.00 0.00 0.00 58 1013.9
20260903055448 68 245 1.0 1.0 0.00 0.00 0.00 58 1013.9
20260903054943 68 232 1.0 1.0 0.00 0.00 0.00 58 1013.8
20260903054437 68 244 0.0 1.0 0.00 0.00 0.00 57 1013.9
20260903053933 68 254 2.0 4.0 0.00 0.00 0.00 57 1013.9
20260903053433 68 263 2.0 2.0 0.00 0.00 0.00 57 1013.9
20260903052930 68 254 1.0 1.0 0.00 0.00 0.00 57 1014.0
20260903052425 69 261 2.0 2.0 0.00 0.00 0.00 57 1013.8
20260903051921 69 252 1.0 1.0 0.00 0.00 0.00 57 1014.0
20260903051416 69 299 1.0 2.0 0.00 0.00 0.00 57 1014.0
20260903050911 69 22 0.0 1.0 0.00 0.00 0.00 56 1014.0
20260903050410 69 250 2.0 2.0 0.00 0.00 0.00 56 1014.1
20260903045905 69 25 0.0 0.0 0.00 0.00 0.00 56 1014.2
20260903045401 69 21 0.0 0.0 0.00 0.00 0.00 56 1014.1
20260903044858 70 311 0.0 1.0 0.00 0.00 0.00 54 1014.0
20260903044357 70 325 0.0 1.0 0.00 0.00 0.00 53 1014.0
20260903043855 70 198 1.0 1.0 0.00 0.00 0.00 53 1013.9
20260903043349 70 267 0.0 0.0 0.00 0.00 0.00 53 1013.8
20260903042847 71 41 1.0 1.0 0.00 0.00 0.00 52 1013.7
20260903042343 71 234 0.0 1.0 0.00 0.00 0.00 50 1013.9
20260903041839 72 279 1.0 1.0 0.00 0.00 0.00 49 1013.6
20260903041335 72 94 0.0 1.0 0.00 0.00 0.00 47 1013.6
20260903040831 72 238 2.0 2.0 0.00 0.00 0.00 45 1013.7
20260903040329 71 130 0.0 0.0 0.00 0.00 0.00 45 1013.5
20260903035826 71 100 0.0 0.0 0.00 0.00 0.00 45 1013.6
20260903035321 71 150 0.0 0.0 0.00 0.00 0.00 45 1013.7
20260903034816 71 150 0.0 0.0 0.00 0.00 0.00 46 1013.4
20260903034311 72 150 0.0 0.0 0.00 0.00 0.00 47 1013.4
20260903033806 72 151 0.0 1.0 0.00 0.00 0.00 48 1013.3
20260903033301 73 151 0.0 0.0 0.00 0.00 0.00 47 1013.2
20260903032755 73 234 0.0 1.0 0.00 0.00 0.00 47 1013.2
20260903032252 73 253 1.0 1.0 0.00 0.00 0.00 47 1013.1
20260903031747 73 255 0.0 0.0 0.00 0.00 0.00 46 1013.1
20260903031246 73 73 0.0 0.0 0.00 0.00 0.00 46 1013.2
20260903030742 74 71 0.0 0.0 0.00 0.00 0.00 47 1013.2
20260903030238 74 59 0.0 1.0 0.00 0.00 0.00 46 1012.9
20260903025728 75 44 0.0 0.0 0.00 0.00 0.00 47 1013.2
20260903025224 75 252 0.0 0.0 0.00 0.00 0.00 46 1012.9
20260903024724 75 279 0.0 1.0 0.00 0.00 0.00 46 1012.8
20260903024222 75 2 0.0 0.0 0.00 0.00 0.00 45 1012.8
20260903023718 76 1 0.0 0.0 0.00 0.00 0.00 44 1012.8
20260903023214 76 2 0.0 0.0 0.00 0.00 0.00 41 1012.9
20260903022714 77 1 0.0 1.0 0.00 0.00 0.00 39 1012.9
20260903022213 78 348 0.0 0.0 0.00 0.00 0.00 36 1012.9
20260903021713 79 283 2.0 5.0 0.00 0.00 0.00 34 1012.9
20260903021208 79 254 3.0 4.0 0.00 0.00 0.00 33 1012.9
20260903020702 79 260 4.0 6.0 0.00 0.00 0.00 33 1013.0
20260903020157 79 282 3.0 4.0 0.00 0.00 0.00 33 1012.9
20260903015652 80 258 4.0 6.0 0.00 0.00 0.00 34 1012.9
20260903015148 80 255 3.0 4.0 0.00 0.00 0.00 33 1013.0
20260903014642 80 238 3.0 4.0 0.00 0.00 0.00 33 1013.0
20260903014142 81 269 3.0 4.0 0.00 0.00 0.00 32 1012.9
20260903013637 81 262 4.0 5.0 0.00 0.00 0.00 30 1013.0
20260903013136 82 240 3.0 4.0 0.00 0.00 0.00 32 1013.0
20260903012635 82 264 2.0 4.0 0.00 0.00 0.00 32 1013.0
20260903012135 82 281 2.0 4.0 0.00 0.00 0.00 31 1013.2
20260903011634 82 278 1.0 1.0 0.00 0.00 0.00 29 1013.1
20260903011129 82 301 2.0 4.0 0.00 0.00 0.00 29 1013.1
20260903010625 82 248 2.0 2.0 0.00 0.00 0.00 30 1013.2
20260903010123 82 247 4.0 5.0 0.00 0.00 0.00 29 1013.1
20260903005618 83 273 3.0 4.0 0.00 0.00 0.00 28 1013.3
20260903005114 82 237 2.0 2.0 0.00 0.00 0.00 29 1013.2
20260903004613 83 250 4.0 5.0 0.00 0.00 0.00 29 1013.3
20260903004108 83 271 3.0 5.0 0.00 0.00 0.00 30 1013.2
20260903003604 84 276 2.0 2.0 0.00 0.00 0.00 28 1013.5
20260903003059 84 252 2.0 2.0 0.00 0.00 0.00 27 1013.3
20260903002554 83 258 1.0 1.0 0.00 0.00 0.00 27 1013.3
20260903002048 83 264 3.0 4.0 0.00 0.00 0.00 27 1013.3
20260903001543 83 265 5.0 6.0 0.00 0.00 0.00 27 1013.4
20260903001043 85 264 3.0 4.0 0.00 0.00 0.00 28 1013.4
20260903000539 85 39 0.0 1.0 0.00 0.00 0.00 24 1013.6
20260903000037 84 54 1.0 2.0 0.00 0.00 0.00 23 1013.7
20260902235532 83 288 1.0 1.0 0.00 0.00 0.00 24 1013.6
20260902235027 84 249 5.0 6.0 0.00 0.00 0.00 22 1013.8
20260902234526 84 330 1.0 1.0 0.00 0.00 0.00 25 1013.6
20260902234025 84 248 2.0 4.0 0.00 0.00 0.00 26 1013.8
20260902233520 84 40 2.0 2.0 0.00 0.00 0.00 25 1013.8
20260902233014 85 279 6.0 7.0 0.00 0.00 0.00 24 1013.9
20260902232514 84 346 2.0 2.0 0.00 0.00 0.00 25 1013.6
20260902232003 83 242 3.0 4.0 0.00 0.00 0.00 25 1013.9
20260902231457 83 275 3.0 4.0 0.00 0.00 0.00 23 1014.0
20260902230952 83 280 2.0 2.0 0.00 0.00 0.00 26 1014.1
20260902230452 84 240 3.0 4.0 0.00 0.00 0.00 25 1013.9
20260902225951 84 240 2.0 2.0 0.00 0.00 0.00 25 1014.0
20260902225446 84 343 0.0 1.0 0.00 0.00 0.00 26 1014.1
20260902224945 83 265 2.0 2.0 0.00 0.00 0.00 24 1014.1
20260902224444 83 260 2.0 2.0 0.00 0.00 0.00 23 1014.4
20260902223942 82 286 2.0 2.0 0.00 0.00 0.00 23 1014.2
20260902223437 83 261 2.0 2.0 0.00 0.00 0.00 24 1014.3
20260902222936 83 241 1.0 2.0 0.00 0.00 0.00 26 1014.4
20260902222435 82 274 5.0 6.0 0.00 0.00 0.00 26 1014.5
20260902221934 83 276 2.0 2.0 0.00 0.00 0.00 28 1014.6
20260902221433 84 244 0.0 1.0 0.00 0.00 0.00 26 1014.6
20260902220929 84 18 1.0 2.0 0.00 0.00 0.00 29 1014.8
20260902220423 82 264 2.0 2.0 0.00 0.00 0.00 28 1014.8
20260902215918 81 255 3.0 5.0 0.00 0.00 0.00 30 1014.7
20260902215414 82 258 7.0 8.0 0.00 0.00 0.00 30 1014.9
20260902214910 82 73 2.0 2.0 0.00 0.00 0.00 29 1014.9
20260902214409 82 344 2.0 2.0 0.00 0.00 0.00 29 1015.1
20260902213903 81 278 3.0 5.0 0.00 0.00 0.00 31 1015.2
20260902213359 81 275 3.0 4.0 0.00 0.00 0.00 31 1015.0
20260902212858 80 267 3.0 4.0 0.00 0.00 0.00 31 1015.3
20260902212354 81 32 2.0 2.0 0.00 0.00 0.00 32 1015.3
20260902211851 81 273 4.0 5.0 0.00 0.00 0.00 32 1015.5
20260902211346 80 287 4.0 5.0 0.00 0.00 0.00 32 1015.4
20260902210841 79 168 1.0 1.0 0.00 0.00 0.00 35 1015.5
20260902210340 80 305 2.0 2.0 0.00 0.00 0.00 31 1015.4
20260902205839 80 247 2.0 2.0 0.00 0.00 0.00 33 1015.6
20260902205334 80 80 0.0 0.0 0.00 0.00 0.00 33 1015.6
20260902204830 80 39 5.0 5.0 0.00 0.00 0.00 33 1015.9
20260902204324 80 27 2.0 2.0 0.00 0.00 0.00 33 1015.7
20260902203820 79 73 0.0 0.0 0.00 0.00 0.00 33 1015.9
20260902203315 80 12 1.0 1.0 0.00 0.00 0.00 33 1016.0
20260902202814 80 28 1.0 1.0 0.00 0.00 0.00 34 1016.0
20260902202310 79 3 2.0 2.0 0.00 0.00 0.00 34 1016.0
20260902201807 79 322 2.0 2.0 0.00 0.00 0.00 34 1015.9
20260902201301 77 81 1.0 1.0 0.00 0.00 0.00 35 1016.0
20260902200756 77 252 3.0 4.0 0.00 0.00 0.00 38 1016.1
20260902200251 78 266 5.0 7.0 0.00 0.00 0.00 36 1016.1
20260902195747 78 45 1.0 1.0 0.00 0.00 0.00 37 1016.1
20260902195246 75 229 0.0 0.0 0.00 0.00 0.00 38 1016.0
20260902194740 76 239 3.0 4.0 0.00 0.00 0.00 37 1016.0
20260902194235 77 256 2.0 4.0 0.00 0.00 0.00 37 1016.2
20260902193731 78 315 2.0 4.0 0.00 0.00 0.00 38 1016.3
20260902193226 76 5 2.0 4.0 0.00 0.00 0.00 39 1016.5
20260902192724 76 343 1.0 1.0 0.00 0.00 0.00 39 1016.4
20260902192219 75 230 2.0 2.0 0.00 0.00 0.00 41 1016.1
20260902191719 75 48 0.0 1.0 0.00 0.00 0.00 39 1016.7
20260902191213 75 213 2.0 2.0 0.00 0.00 0.00 41 1016.5
20260902190709 74 56 0.0 1.0 0.00 0.00 0.00 41 1016.7
20260902190209 73 272 2.0 2.0 0.00 0.00 0.00 42 1016.6
20260902185704 73 185 1.0 1.0 0.00 0.00 0.00 43 1016.7
20260902185202 73 254 3.0 4.0 0.00 0.00 0.00 43 1016.8
20260902184655 73 252 3.0 5.0 0.00 0.00 0.00 44 1016.9
20260902184151 74 51 0.0 1.0 0.00 0.00 0.00 43 1016.8
20260902183647 73 228 1.0 1.0 0.00 0.00 0.00 44 1016.9
20260902183143 72 43 0.0 0.0 0.00 0.00 0.00 45 1016.9